OpenBCM V1.08-5-g2f4a (Linux)

Packet Radio Mailbox

IZ3LSV

[San Dona' di P. JN]

 Login: GUEST





  
I0OJJ  > KEPS     17.09.25 02:03l 311 Lines 14846 Bytes #129 (0) @ AMSAT
BID : ORB25260.1
Read: GUEST
Subj: 2Line Orbital Elements 25260.AMSAT
Path: IZ3LSV<IK6IHL<IK7NXU<HB9ON<DK0WUE<PI8ZTM<PI8LAP<VE2PKT<VE3CGR<VK2RZ<
      IR0AAB<I0OJJ
Sent: 250917/0025z @:I0OJJ.ITA.EU [Rome] obcm1.08-10-g596e
From: I0OJJ @ I0OJJ.ITA.EU (Gustavo)
To:   KEPS @ AMSAT
X-Info: This message was generated automatically


QST de W1STR

AMSAT Orbital Elements for Amateur Satellites in TLE Format
From Orbital Analysis Office
New England Sci-Tech STEM Education Center
Natick MA September 17, 2025
To all radio amateurs


These element sets describe the orbits of various satellites 
in use by the amateur radio community. For details see:
www.amsat.org/keplerian-elements-formats/

A daily update of element sets is available at:
www.amsat.org/tle/daily-bulletin.txt
or without bulletin text:
www.amsat.org/tle/dailytle.txt


AO-07
1 07530U 74089B   25259.52878332 -.00000031  00000-0  94737-4 0  9993
2 07530 101.9985 264.8598 0011932 294.4389 185.3186 12.53691542326222
UO-11
1 14781U 84021B   25259.48624322  .00001361  00000-0  14793-3 0  9998
2 14781  97.7661 223.9685 0008294  21.6838 338.4729 14.89671745216361
AO-27
1 22825U 93061C   25258.74927844  .00000078  00000-0  46998-4 0  9990
2 22825  98.7273 320.7514 0008444 177.8928 182.2291 14.30828757667752
FO-29
1 24278U 96046B   25259.60491293 -.00000025  00000-0  80251-5 0  9994
2 24278  98.5584 140.3991 0350912  86.0056 278.1113 13.53253632436162
NOAA-15
1 25338U 98030A   25259.60637017  .00000124  00000-0  68294-4 0  9994
2 25338  98.5320 282.3384 0011391  71.7038 288.5381 14.27016627422279
GO-32
1 25397U 98043D   25259.39041171  .00000087  00000-0  57973-4 0  9999
2 25397  98.9819 240.6212 0000425 336.9204  23.1955 14.24338884412352
ISS
1 25544U 98067A   25259.47902118  .00010460  00000-0  18877-3 0  9990
2 25544  51.6328 214.5860 0004354 346.2034  13.8835 15.50332788529524
NO-44
1 26931U 01043C   25259.56072600  .00000173  00000-0  95716-4 0  9991
2 26931  67.0494 231.9117 0007064 275.2166  84.8130 14.31778755251272
SO-50
1 27607U 02058C   25259.42768798  .00001644  00000-0  21806-3 0  9996
2 27607  64.5509 255.3491 0066400 313.2724  46.2852 14.81889063223877
CO-55
1 27844U 03031E   25259.53984461  .00000292  00000-0  14605-3 0  9997
2 27844  98.6791 266.5517 0008435 259.3858 100.6371 14.24068138152721
CO-57
1 27848U 03031J   25259.46450389  .00000258  00000-0  13321-3 0  9996
2 27848  98.6822 266.4077 0008343 279.7357  80.2879 14.23392703152439
RS-22
1 27939U 03042A   25259.61421392  .00001080  00000-0  17797-3 0  9993
2 27939  98.3368  71.5262 0012394  59.4191  14.6702 14.72587313175273
CO-58
1 28895U 05043F   25259.34285967  .00001584  00000-0  26428-3 0  9994
2 28895  98.2637  45.0231 0014280 358.6596   1.4569 14.71343683 61463
CO-65
1 32785U 08021C   25259.54615987  .00006546  00000-0  46022-3 0  9992
2 32785  97.7953 231.5583 0008116 231.0595 128.9909 15.05416953943963
CO-66
1 32791U 08021J   25259.39899909  .00015573  00000-0  70205-3 0  9990
2 32791  97.7370 241.8490 0004441 147.4420 212.7089 15.21120492945509
RS-30
1 32953U 08025A   25259.63255487  .00000002  00000-0 -59171-4 0  9990
2 32953  82.5070 165.5942 0018584 186.4421 173.6423 12.43168104785703
NOAA-19
1 33591U 09005A   25259.59451247  .00000081  00000-0  67037-4 0  9991
2 33591  98.9885 324.8149 0014811  85.0561 275.2302 14.13407182855832
SRMSAT
1 37841U 11058D   25259.35256709  .00000427  00000-0  88294-4 0  9996
2 37841  19.9717 276.8239 0011964  71.6787 316.1547 14.11464621719085
ZACUBE-1
1 39417U 13066B   25259.44174845  .00006227  00000-0  52748-3 0  9996
2 39417  97.7905 216.0314 0045883  81.9612 278.6812 14.97526757639707
Delfi-N3xt
1 39428U 13066N   25259.48640457  .00009374  00000-0  92371-3 0  9991
2 39428  97.8282 176.0750 0084195  35.6632 325.0170 14.89592316633796
GOMX-1
1 39430U 13066Q   25259.53672103  .00002101  00000-0  33047-3 0  9999
2 39430  97.6723 112.1017 0130378 235.3033 123.5834 14.68002679629746
LO-74
1 39440U 13066AA  25259.57951721  .00003454  00000-0  34633-3 0  9994
2 39440  97.8551 203.5283 0060065 211.8066 147.9520 14.90677359636184
AO-73
1 39444U 13066AE  25259.35017054  .00009373  00000-0  67516-3 0  9998
2 39444  97.7925 221.7698 0043304  55.4239 305.1060 15.03640356638423
DTUSAT-2
1 40030U 14033W   25259.36920416  .00008460  00000-0  53041-3 0  9996
2 40030  98.0653 236.1045 0011067  87.5577 272.6917 15.09558936611299
EO-80
1 40032U 14033Y   25259.38429951  .00008211  00000-0  51380-3 0  9996
2 40032  98.0539 235.6375 0009648  39.9890 320.2046 15.09652711611272
LILACSAT-2
1 40908U 15049K   25259.63765406  .00013666  00000-0  33079-3 0  9997
2 40908  97.5033 282.5093 0009788 152.9765 207.1992 15.41187440553475
IO-86
1 40931U 15052B   25151.18580175  .00001241  00000-0  78118-4 0  9996
2 40931   6.0006  24.0987 0012733 338.8432  21.1169 14.78805930523159
Horyu-4
1 41340U 16012D   25259.19288891  .00033943  00000-0  77869-3 0  9993
2 41340  30.9946 186.7462 0005987 355.4003   4.6588 15.41476440527997
Lapan A3
1 41603U 16040E   25259.63907157  .00004276  00000-0  14718-3 0  9999
2 41603  97.1423 260.4220 0008754 276.8435  83.1811 15.30533330512935
CAS-2T
1 41847U 16066G   25259.24179786  .00001199  00000-0  18024-3 0  9998
2 41847  98.4128 332.8262 0344238 239.8491 116.8177 14.43717387465252
CAS-4B
1 42759U 17034B   25259.89347255  .00331093  00000-0  13326-2 0  9994
2 42759  42.9998  83.0002 0024029 277.2571  82.5570 15.84316927458225
CAS-4A
1 42761U 17034D   25259.92582928  .00263071  32702-4  92314-3 0  9992
2 42761  43.0029  78.1961 0024511 283.5760  76.2384 15.87955477458269
TechnoSat
1 42829U 17042E   25259.44140821  .00003205  00000-0  24600-3 0  9991
2 42829  97.4014  63.5085 0016177 313.1800  46.8073 15.02356858445562
AO-91
1 43017U 17073E   25259.56031328  .00008775  00000-0  43631-3 0  9991
2 43017  97.5098 127.8539 0167701 188.2984 171.5465 15.06319281424108
S-Net D
1 43186U 18014G   25258.95785822  .00005752  00000-0  33150-3 0  9998
2 43186  97.5501 160.8579 0007105 240.9724 119.0795 15.12764377417241
S-Net B
1 43187U 18014H   25259.16300373  .00005768  00000-0  33252-3 0  9997
2 43187  97.5507 161.0374 0007878 234.9129 125.1364 15.12745918417276
S-Net A
1 43188U 18014J   25259.55320525  .00005975  00000-0  34407-3 0  9995
2 43188  97.5515 161.5871 0007806 234.1682 125.8824 15.12776270417330
S-Net C
1 43189U 18014K   25259.29793940  .00005579  00000-0  32171-3 0  9998
2 43189  97.5530 161.3653 0009368 227.3716 132.6725 15.12742813415847
Ten-Koh
1 43677U 18084G   25259.47240108  .00002383  00000-0  19170-3 0  9994
2 43677  98.0807  75.6502 0005903 290.8246  69.2344 15.01020270375072
PO-101
1 43678U 18084H   25259.54663229  .00001604  00000-0  13846-3 0  9995
2 43678  98.1085  79.5138 0008310 324.6364  35.4305 14.98761607375200
QO-100
1 43700U 18090A   25259.58884537  .00000125  00000-0  00000-0 0  9991
2 43700   0.0176 237.1463 0001420 339.2730  17.1689  1.00271990 24939
MinXSS-2
1 43758U 18099A   25259.07728095  .00022585  00000-0  80591-3 0  9993
2 43758  97.4925 325.5810 0011917 163.5786 196.5842 15.28819450372004
AO-95
1 43770U 18099N   25259.12921253  .00010987  00000-0  52795-3 0  9992
2 43770  97.4819 316.1823 0009431 221.6502 138.4015 15.18961439371505
SNUSat 2
1 43782U 18099AA  25259.59724078  .00007850  00000-0  41127-3 0  9994
2 43782  97.4505 312.5689 0012398 163.5569 196.6069 15.15998110371499
SnugLite
1 43784U 18099AC  25259.13755120  .00011266  00000-0  53616-3 0  9990
2 43784  97.4317 311.8989 0004289 151.0101 209.1372 15.19319026371596
ITASat 1
1 43786U 18099AE  25259.12320468  .00006751  00000-0  37334-3 0  9996
2 43786  97.4472 311.3119 0013058 219.8321 140.1953 15.14125074371368
EAGLET 1
1 43790U 18099AJ  25259.59147970  .00004060  00000-0  25446-3 0  9999
2 43790  97.4669 311.3762 0011291 201.8778 158.1971 15.09848729371002
ESEO
1 43792U 18099AL  25259.34788848  .00002296  00000-0  17497-3 0  9995
2 43792  97.4366 303.0532 0012233 183.1640 176.9511 15.02948385370658
JO-97
1 43803U 18099AX  25259.14771880  .00014602  00000-0  62209-3 0  9999
2 43803  97.4566 317.4304 0008232 151.4853 208.6836 15.23035069371762
Suomi 100
1 43804U 18099AY  25259.13387271  .00011999  00000-0  55537-3 0  9998
2 43804  97.4630 316.4086 0012766 158.4653 201.7122 15.20202656371669
ISAT
1 43879U 18111D   25259.21008514  .00027506  00000-0  83862-3 0  9997
2 43879  97.5869 175.9956 0007218 185.4323 174.6842 15.33900043368796
UWE-4
1 43880U 18111E   25259.21468325  .00020431  00000-0  72861-3 0  9996
2 43880  97.5815 173.7262 0009501 211.0714 148.9964 15.28887370368680
Sparrow
1 43881U 18111F   25259.23557863  .00030116  00000-0  87458-3 0  9994
2 43881  97.6036 179.3122 0003731 223.3606 136.7344 15.35437170368908
Prox-1
1 44339U 19036A   25259.33608837  .00014670  00000-0  17736-2 0  9997
2 44339  23.9953 132.1807 0006804 116.4538 243.6658 14.81971362332671
Taurus 1
1 44530U 19059C   25259.66871922  .00007439  00000-0  13338-2 0  9997
2 44530  98.6170  43.9011 0009596  90.9041 269.3261 14.67041647318460
Duchifat 3
1 44854U 19089C   25259.50668232  .00084967  00000-0  11251-2 0  9993
2 44854  36.9378  82.0170 0006954   7.4409 352.6453 15.57095831318384
TO-108
1 44881U 19093C   25259.63199924  .00000831  00000-0  10170-3 0  9997
2 44881  97.7851 333.1853 0012303 265.8205  94.1604 14.85791629310782
FloripaSat 1
1 44885U 19093G   25259.61273140  .00006173  00000-0  50705-3 0  9995
2 44885  97.8166 347.4690 0008376 232.6505 127.3955 14.99524615311584
RS-44
1 44909U 19096E   25259.45302638  .00000007  00000-0 -23854-4 0  9999
2 44909  82.5251 161.6063 0218516  64.4755 297.8766 12.79743466267333
UPMSat 2
1 46276U 20061E   25259.48600633  .00271529  29249-4  86802-3 0  9990
2 46276  97.2293 338.3619 0003593 220.7882 139.3123 15.91044109281053
